DW5375 Weather Reports


time (UTC)temp
C
wind
direction
speed
KPH
gust
KPH
rain 1hr
cm
rain 24hr
cm
rain mn
cm
humidity
%
barometer
mb
20260505051537 -17 200 6.4 14.5 0.00 0.00 0.00 1009.9
20260505041520 -17 214 8.0 12.9 0.00 0.00 0.00 1009.3
20260505040016 -17 193 6.4 11.3 0.00 0.00 0.00 1009.2
20260505034512 -17 194 9.7 14.5 0.00 0.00 0.00 1009.1
20260505033007 -17 198 4.8 11.3 0.00 0.00 0.00 1008.9
20260505031503 -17 205 8.0 11.3 0.00 0.00 0.00 1008.8
20260505030058 -17 200 8.0 11.3 0.00 0.00 0.00 1008.7
20260505024553 -17 226 8.0 14.5 0.00 0.00 0.00 1008.6
20260505023050 -17 211 6.4 11.3 0.00 0.00 0.00 1008.7
20260505021545 -17 206 4.8 12.9 0.00 0.00 0.00 1008.8
20260505020040 -17 218 6.4 14.5 0.00 0.00 0.00 1008.8
20260505014537 -17 202 8.0 14.5 0.00 0.00 0.00 1009.0
20260505013031 -17 184 11.3 16.1 0.00 0.00 0.00 1009.0
20260505011546 -17 182 11.3 16.1 0.00 0.00 0.00 1009.1
20260505010023 -17 209 8.0 20.9 0.00 0.00 0.00 1009.2
20260505004519 -17 189 12.9 17.7 0.00 0.00 0.00 1009.2
20260505003014 -17 191 12.9 17.7 0.00 0.00 0.00 1009.1
20260505001510 -17 198 8.0 11.3 0.00 0.00 0.00 1009.3
20260505000005 -17 243 3.2 9.7 0.00 0.00 0.00 1009.5
20260504234502 -17 183 8.0 14.5 0.00 0.00 0.00 1009.6
20260504233110 -17 173 3.2 8.0 0.00 0.00 0.00 1009.6
20260504231553 -17 167 3.2 8.0 0.00 0.00 0.00 1009.7
20260504230048 -17 180 4.8 8.0 0.00 0.00 0.00 1009.8
20260504224545 -17 187 4.8 8.0 0.00 0.00 0.00 1009.9
20260504223039 -17 193 11.3 14.5 0.00 0.00 0.00 1010.0
20260504221534 -17 195 6.4 9.7 0.00 0.00 0.00 1010.0
20260504220030 -17 211 4.8 11.3 0.00 0.00 0.00 1010.2
20260504214528 -17 218 4.8 8.0 0.00 0.00 0.00 1010.2
20260504213021 -17 190 6.4 9.7 0.00 0.00 0.00 1010.2
20260504211516 -17 207 6.4 9.7 0.00 0.00 0.00 1010.2
20260504210018 -17 220 4.8 6.4 0.00 0.00 0.00 1010.3
20260504204509 -17 217 4.8 8.0 0.00 0.00 0.00 1010.5
20260504203004 -17 213 3.2 6.4 0.00 0.00 0.00 1010.5
20260504201559 -17 195 1.6 4.8 0.00 0.00 0.00 1010.6
20260504194600 -17 227 6.4 9.7 0.00 0.00 0.00 1010.6
20260504193046 -17 235 3.2 6.4 0.00 0.00 0.00 1010.6
20260504191549 -17 214 3.2 8.0 0.00 0.00 0.00 1010.7
20260504190038 -17 186 3.2 4.8 0.00 0.00 0.00 1010.8
20260504184533 -17 225 3.2 6.4 0.00 0.00 0.00 1010.8
20260504183028 -17 221 3.2 8.0 0.00 0.00 0.00 1010.7
20260504181524 -17 182 3.2 8.0 0.00 0.00 0.00 1010.8
20260504180020 -17 221 3.2 6.4 0.00 0.00 0.00 1010.9
20260504174515 -17 232 3.2 4.8 0.00 0.00 0.00 1010.9
20260504173012 -17 185 3.2 4.8 0.00 0.00 0.00 1010.9
20260504171506 -17 183 1.6 4.8 0.00 0.00 0.00 1011.0
20260504100104 -17 0.0 0.0 0.00 0.00 0.00 1009.4
20260504081528 -17 222 0.0 3.2 0.00 0.00 0.00 1009.4